Wind_Speed
12 11 10 10 10 9 9 8 9 9 9 9 9 9 9 9 9 8 8 9 9 9 9 9 9 9 9 9 8 8 8 9 9 9 9 9 10 10 11 11 11 10 11
11 11 10 10 10 9 9 9 9 10 10 9 9 9 9 9 9 9 9 9 9 9 9 9 9 9 9 9 8 8 9 9 8 8 9 9 10 10 11 11 12 11 11
11 11 11 11 10 10 9 9 10 10 10 10 9 9 9 9 9 9 10 9 9 9 10 10 9 9 9 9 9 9 9 9 9 8 9 9 9 10 10 10 11 12 13
11 12 11 11 11 10 9 9 11 11 11 10 10 9 9 9 9 9 10 10 10 10 10 10 9 9 8 9 9 10 9 9 8 9 9 9 9 10 10 11 11 12 12
12 12 12 11 11 10 10 11 12 12 11 11 10 10 10 10 10 10 10 10 10 9 9 9 9 9 9 9 9 9 9 9 9 9 10 10 10 10 10 11 11 12 13
12 12 12 12 12 11 11 11 12 12 12 12 11 11 10 10 11 11 10 10 9 9 9 9 9 9 9 9 9 9 10 9 10 10 10 10 10 11 11 12 12 12 13
11 12 12 12 12 12 12 13 12 12 13 13 12 12 11 11 11 12 11 10 10 10 10 10 10 10 9 9 10 10 10 10 10 10 10 10 10 10 11 12 12 12 12
11 12 12 12 12 12 12 13 13 13 13 13 12 12 12 12 11 11 10 11 11 11 11 11 10 10 10 10 10 10 10 10 10 10 10 11 11 11 11 11 12 12 12
12 12 13 13 12 12 12 13 13 13 13 12 12 12 12 12 12 11 11 11 11 12 12 12 11 11 11 11 11 11 11 11 11 11 11 11 12 12 12 11 12 12 12
13 13 13 13 12 12 12 12 12 13 13 12 12 12 12 12 12 11 12 12 12 13 12 12 12 12 12 12 11 11 11 11 11 12 12 12 12 12 12 12 12 13 13
13 13 13 13 13 12 13 13 13 13 13 13 12 12 12 12 12 12 12 12 13 13 13 13 13 13 13 13 12 13 12 13 13 13 13 14 14 14 14 14 15 15 15
13 13 13 14 13 13 13 13 12 12 13 13 13 13 13 12 12 12 12 13 13 14 14 14 14 14 13 13 14 14 14 13 13 13 14 14 14 15 16 16 16 16 17
14 15 15 14 13 12 13 12 12 12 12 13 13 13 12 12 13 13 13 13 14 14 14 14 14 14 14 14 15 14 14 14 14 14 14 14 14 15 16 16 16 16 16
14 13 13 13 13 12 13 13 13 12 12 13 13 13 13 13 13 13 14 14 15 14 14 14 14 15 15 16 16 15 15 14 14 14 14 14 14 15 15 16 16 17 17
14 13 13 13 13 12 12 13 13 13 13 13 14 14 13 14 14 14 14 14 14 14 14 14 14 14 15 15 15 15 15 15 14 14 14 14 14 15 16 16 17 17 17
14 14 14 14 14 13 13 13 12 13 13 14 14 13 14 14 14 14 14 14 15 15 15 14 14 14 15 15 15 15 15 14 14 14 14 14 14 15 16 17 17 17 18
15 14 14 15 14 15 14 13 13 13 14 14 14 14 14 13 14 14 15 15 15 15 15 14 14 14 14 15 16 15 15 15 15 15 15 15 15 16 17 18 18 18 18
16 16 15 15 15 15 15 14 14 14 14 14 13 13 13 13 14 14 15 14 14 14 14 13 13 13 13 14 14 15 15 15 15 15 15 16 16 17 18 18 18 19 19
16 16 15 15 15 15 15 15 15 15 15 14 13 13 14 14 15 15 15 15 15 14 14 14 14 15 14 14 14 15 15 16 16 16 16 17 17 18 18 18 19 19 20
17 16 16 15 15 15 16 15 16 16 15 15 15 14 15 15 15 16 16 16 15 15 15 15 15 15 14 14 15 16 17 17 17 17 18 18 19 20 20 20 21 21 22
15 15 16 16 16 16 17 16 16 16 16 16 16 15 15 15 15 16 16 16 16 16 16 15 15 15 14 15 16 17 17 18 19 19 19 20 20 21 21 22 22 23 23
16 16 16 16 16 16 16 16 17 17 17 16 16 16 16 16 16 16 16 16 16 16 15 15 15 15 15 16 16 17 17 18 18 19 20 20 21 21 22 22 23 23 24
16 16 16 16 16 16 16 16 16 16 16 16 16 16 16 17 17 17 17 17 16 16 16 17 16 16 16 16 17 17 17 18 18 18 20 21 21 22 22 22 23 24 24
17 17 16 15 16 16 16 16 16 16 16 16 15 16 16 16 16 16 16 16 16 16 16 16 17 17 17 17 17 18 18 18 19 19 21 22 23 23 23 23 24 24 24
16 16 16 16 17 16 16 16 16 16 16 16 17 17 16 16 16 16 16 17 16 16 16 17 17 17 17 17 18 18 18 18 19 20 21 22 23 23 24 24 24 24 24
17 16 17 16 16 17 16 16 16 16 16 17 17 17 17 17 17 17 17 16 16 16 17 17 18 18 18 18 19 19 19 20 21 22 22 22 23 23 23 23 24 24 24
Wind_Direction
266 268 268 269 270 272 275 278 283 287 288 290 291 293 293 290 291 294 294 294 293 293 293 292 290 290 291 290 289 287 285 284 282 279 275 271 271 269 269 267 266 266 268
266 267 270 272 272 272 275 280 285 286 285 287 290 291 291 287 288 292 294 294 292 292 294 292 287 289 288 286 284 285 285 282 281 279 276 274 272 273 272 269 267 267 269
268 269 269 272 275 273 274 281 287 285 285 287 290 291 292 288 290 292 294 293 291 291 293 294 292 288 286 282 282 284 284 281 279 278 277 275 274 275 276 272 268 267 267
268 270 273 276 275 275 274 278 284 286 286 288 289 290 289 286 289 291 293 292 290 291 293 294 294 291 288 282 283 283 284 281 279 278 277 274 275 276 277 276 271 271 271
267 271 273 275 274 273 274 279 282 284 285 286 289 291 291 288 288 289 290 289 289 290 292 293 292 291 294 293 288 285 283 282 280 279 279 276 275 276 276 278 275 272 271
268 270 272 274 273 272 274 280 281 282 284 286 287 288 288 288 285 283 285 285 287 288 290 292 290 288 288 287 288 286 281 281 281 280 280 279 278 276 275 277 279 275 272
267 268 270 273 272 274 276 279 279 281 282 284 284 284 284 285 284 281 282 282 285 285 285 287 286 285 285 285 285 285 283 282 279 281 281 279 279 278 276 277 280 279 274
266 267 269 269 270 273 277 279 280 282 282 281 280 279 280 282 283 282 283 283 283 284 285 284 283 283 283 284 284 284 280 282 279 278 280 280 280 279 279 279 278 278 277
267 267 270 269 270 271 275 276 276 279 282 282 281 279 279 279 282 282 282 283 282 282 283 282 281 283 283 282 281 283 283 282 279 278 280 281 279 278 277 280 280 279 280
269 270 268 267 268 273 275 277 279 281 282 282 281 280 279 278 278 280 282 284 284 283 282 281 279 280 282 282 279 279 281 282 282 280 279 279 279 279 279 280 279 280 281
268 269 269 268 269 271 275 276 278 278 279 283 283 281 278 277 277 276 279 284 287 285 281 279 277 278 279 279 277 277 279 281 281 280 279 280 280 281 279 280 278 279 280
267 268 268 271 271 271 275 276 278 279 280 282 282 281 280 280 279 279 280 284 286 284 281 279 278 277 277 278 278 279 279 284 281 280 281 279 279 280 280 282 278 278 279
267 267 269 270 270 272 275 276 278 281 280 282 282 280 279 280 281 282 284 287 287 284 282 281 278 275 274 276 277 279 280 282 281 281 282 282 281 280 280 280 280 280 280
268 266 269 270 270 270 272 276 277 281 280 280 284 283 279 278 281 283 287 289 288 285 282 282 280 275 273 273 275 278 280 282 282 282 283 284 283 283 283 281 280 280 280
268 268 271 272 273 270 272 274 276 278 278 281 285 282 279 279 280 283 286 289 289 287 284 284 281 277 277 275 275 277 278 282 283 283 283 283 284 285 283 283 284 283 281
270 268 268 270 269 267 271 275 277 278 279 281 282 279 280 280 279 285 289 290 287 288 286 282 280 279 277 275 275 276 276 277 279 281 284 285 286 285 285 286 285 285 285
270 269 270 269 270 271 270 272 276 280 282 282 280 278 278 278 279 284 289 290 288 287 286 285 282 280 277 275 277 276 276 278 280 280 282 284 287 288 288 288 287 287 286
268 268 269 270 270 270 270 271 273 276 279 280 281 280 278 279 282 286 287 290 291 288 288 285 284 282 280 279 277 277 280 282 283 283 283 285 288 292 291 290 290 290 288
268 269 268 268 268 270 270 270 270 274 275 277 280 282 280 281 284 286 285 288 289 289 290 285 285 283 280 279 279 280 280 281 284 286 288 288 289 291 292 293 292 291 290
268 266 266 266 267 269 269 271 271 272 274 274 280 286 285 282 284 286 286 287 288 289 290 290 287 283 280 279 281 282 281 281 282 285 288 289 291 292 293 293 293 291 290
269 267 266 268 268 267 268 269 271 272 274 276 281 284 284 284 286 286 286 285 285 286 290 290 287 286 283 281 283 284 283 282 281 283 286 289 292 293 293 294 294 293 291
268 267 266 268 268 268 268 268 271 273 276 278 279 281 283 284 286 287 287 285 283 283 286 287 285 284 286 286 287 287 287 286 287 287 290 291 292 294 295 296 296 296 295
266 266 265 263 264 267 269 268 270 274 275 277 279 280 282 285 286 287 289 289 286 284 285 285 282 282 284 287 288 288 288 288 287 289 291 292 293 295 297 297 297 298 298
266 266 264 262 264 267 269 271 270 271 273 276 281 284 284 284 285 287 288 290 289 287 285 286 284 283 283 284 286 287 287 288 290 291 293 294 294 296 297 297 298 299 299
268 270 267 265 264 264 267 270 272 272 275 277 280 283 283 284 286 289 289 289 289 287 284 284 284 285 287 288 288 289 289 290 292 294 295 295 295 297 297 298 300 300 299
268 268 267 264 262 264 266 268 270 273 275 279 283 282 281 283 287 289 289 288 288 286 283 283 284 286 288 288 289 290 291 292 292 293 294 295 295 296 297 299 300 300 299
Height
5879 5879 5879 5878 5878 5877 5877 5876 5876 5875 5874 5874 5872 5872 5871 5870 5869 5868 5867 5866 5865 5864 5863 5862 5861 5860 5859 5859 5858 5858 5857 5857 5856 5856 5855 5855 5854 5854 5854 5854 5853 5853 5853
5877 5877 5876 5876 5875 5875 5875 5874 5874 5873 5872 5871 5871 5870 5869 5868 5867 5866 5865 5864 5863 5862 5861 5860 5859 5858 5858 5857 5856 5856 5855 5855 5854 5853 5853 5853 5852 5852 5851 5851 5850 5850 5850
5874 5874 5874 5873 5873 5872 5872 5872 5871 5871 5870 5869 5868 5867 5867 5866 5865 5864 5863 5862 5861 5860 5859 5858 5857 5856 5856 5855 5854 5854 5853 5852 5852 5851 5851 5850 5850 5849 5849 5848 5848 5848 5847
5872 5872 5871 5871 5870 5870 5870 5869 5869 5868 5868 5867 5866 5865 5864 5864 5863 5862 5861 5860 5859 5858 5857 5856 5855 5854 5854 5853 5852 5851 5851 5850 5849 5849 5848 5848 5847 5847 5846 5845 5845 5845 5844
5869 5869 5868 5868 5868 5868 5867 5867 5866 5866 5865 5864 5863 5862 5862 5861 5860 5860 5859 5858 5857 5856 5855 5854 5853 5852 5852 5851 5850 5849 5849 5848 5847 5846 5846 5845 5845 5844 5844 5843 5842 5842 5841
5866 5866 5866 5865 5865 5865 5865 5864 5864 5863 5862 5861 5860 5860 5859 5859 5858 5857 5856 5856 5855 5854 5853 5852 5851 5850 5849 5849 5848 5847 5846 5846 5845 5844 5843 5843 5842 5842 5841 5840 5840 5839 5838
5863 5863 5863 5863 5862 5862 5862 5861 5861 5860 5859 5858 5858 5857 5857 5856 5855 5854 5854 5853 5852 5852 5851 5850 5849 5848 5847 5846 5846 5845 5844 5843 5842 5841 5841 5840 5839 5839 5838 5837 5837 5836 5835
5860 5860 5860 5860 5859 5859 5859 5858 5857 5857 5856 5855 5855 5854 5854 5854 5852 5852 5851 5850 5850 5849 5848 5847 5846 5845 5845 5844 5843 5842 5841 5840 5840 5839 5838 5838 5837 5836 5835 5835 5834 5833 5833
5857 5857 5856 5856 5856 5856 5856 5855 5854 5854 5853 5852 5852 5852 5851 5850 5850 5849 5848 5848 5847 5846 5845 5844 5844 5843 5842 5841 5840 5839 5839 5838 5837 5836 5835 5835 5834 5834 5833 5832 5831 5831 5830
5854 5853 5853 5853 5853 5852 5852 5852 5851 5851 5850 5849 5849 5848 5848 5848 5847 5846 5846 5845 5844 5843 5842 5841 5840 5839 5839 5838 5838 5837 5836 5835 5834 5833 5832 5832 5831 5830 5830 5829 5828 5828 5827
5850 5850 5850 5850 5849 5849 5849 5848 5848 5847 5847 5846 5845 5845 5844 5844 5844 5843 5843 5842 5841 5839 5838 5837 5837 5836 5836 5835 5834 5834 5833 5832 5831 5830 5829 5828 5828 5827 5826 5826 5825 5824 5823
5847 5847 5846 5846 5846 5846 5845 5845 5844 5844 5843 5843 5842 5842 5841 5841 5840 5840 5839 5838 5837 5836 5835 5834 5833 5832 5832 5831 5831 5830 5829 5828 5827 5827 5826 5824 5824 5823 5823 5822 5821 5820 5819
5844 5844 5843 5843 5843 5842 5842 5841 5841 5841 5840 5840 5839 5838 5838 5837 5837 5836 5836 5835 5834 5832 5831 5830 5829 5828 5828 5827 5827 5826 5825 5825 5824 5823 5822 5821 5820 5819 5819 5818 5817 5816 5815
5841 5841 5840 5840 5839 5839 5839 5838 5838 5838 5837 5836 5836 5835 5834 5834 5833 5833 5832 5831 5830 5829 5828 5826 5825 5824 5823 5823 5823 5822 5821 5821 5820 5819 5818 5817 5816 5815 5814 5813 5812 5812 5811
5837 5837 5837 5837 5836 5836 5835 5835 5834 5834 5833 5833 5832 5832 5831 5830 5829 5829 5828 5827 5826 5825 5824 5823 5821 5820 5819 5818 5818 5818 5817 5817 5816 5815 5814 5813 5812 5811 5810 5809 5808 5807 5806
5833 5833 5833 5833 5832 5832 5831 5831 5831 5830 5829 5829 5829 5828 5827 5827 5826 5825 5824 5823 5822 5821 5819 5818 5817 5816 5815 5814 5814 5813 5813 5812 5812 5811 5810 5809 5808 5807 5806 5805 5804 5803 5802
5829 5829 5829 5829 5829 5828 5828 5828 5827 5827 5826 5825 5825 5824 5824 5823 5822 5821 5820 5819 5818 5816 5815 5814 5812 5811 5811 5810 5809 5809 5809 5809 5808 5807 5806 5805 5804 5803 5801 5800 5799 5798 5796
5825 5825 5825 5825 5824 5824 5824 5823 5823 5823 5822 5822 5821 5821 5820 5819 5818 5818 5816 5815 5814 5812 5811 5810 5809 5807 5807 5806 5805 5805 5805 5804 5804 5803 5802 5801 5799 5798 5797 5795 5794 5792 5791
5820 5820 5820 5820 5820 5820 5819 5819 5819 5819 5818 5818 5817 5817 5816 5815 5815 5814 5813 5811 5810 5809 5807 5806 5805 5804 5803 5802 5801 5801 5800 5800 5799 5798 5797 5796 5795 5793 5792 5790 5788 5787 5785
5816 5816 5816 5816 5815 5815 5815 5815 5815 5815 5814 5814 5813 5813 5812 5811 5811 5809 5808 5807 5806 5805 5803 5802 5801 5799 5799 5798 5797 5796 5796 5795 5794 5793 5792 5791 5790 5788 5786 5785 5783 5781 5779
5811 5811 5811 5811 5811 5811 5811 5811 5811 5810 5810 5810 5809 5809 5808 5807 5806 5805 5804 5803 5801 5800 5799 5797 5796 5795 5794 5793 5793 5792 5791 5790 5789 5788 5787 5786 5784 5783 5781 5779 5777 5774 5772
5806 5806 5806 5806 5806 5806 5806 5806 5806 5806 5806 5805 5805 5804 5804 5803 5802 5800 5799 5798 5797 5796 5794 5793 5792 5791 5790 5789 5788 5787 5786 5785 5784 5783 5782 5780 5779 5777 5775 5773 5770 5768 5765
5802 5802 5802 5802 5802 5802 5802 5802 5801 5801 5801 5801 5800 5800 5799 5798 5797 5796 5794 5793 5792 5790 5790 5788 5787 5786 5785 5784 5783 5782 5781 5779 5778 5777 5776 5774 5773 5771 5768 5766 5764 5761 5758
5797 5797 5797 5797 5797 5797 5797 5797 5797 5797 5796 5796 5796 5795 5794 5793 5792 5791 5790 5788 5787 5785 5784 5783 5783 5782 5780 5779 5778 5777 5776 5774 5773 5771 5770 5768 5766 5765 5762 5760 5757 5754 5751
5792 5792 5792 5792 5792 5792 5792 5792 5792 5792 5792 5791 5791 5790 5789 5788 5787 5786 5785 5784 5782 5781 5779 5778 5777 5776 5775 5774 5773 5772 5770 5769 5768 5766 5764 5762 5760 5758 5756 5753 5751 5748 5745
5786 5787 5787 5787 5787 5787 5787 5787 5787 5787 5787 5787 5786 5785 5784 5783 5782 5781 5780 5779 5777 5776 5774 5773 5772 5771 5770 5769 5768 5766 5765 5763 5762 5760 5758 5756 5754 5752 5750 5747 5744 5741 5739